STORD / SOERSTOKKEN current weather conditions

sailwx.info

Wind from 260 at 17 knots gusting 27

Air temperature 5.0° C
Visibility: greater than 5.4 NM
Dewpoint 2.0° C
Present weather: Showers in the vicinity. Thunderstorm.

Last reported at 2014-Dec-19 21:50 UTC.
Time now 2014-Dec-20 02:20 UTC

Location: N 59°48' E 005°21'.
View on Google Maps.

See reports from other nearby stations

  
Tides and Currents Weather Stations Pressure Air Temp Water Temp Dewpoint Dewpoint Depression Visibility Wind Speed Wind Dir Waves Ship Positions
date/time (UTC)wind fromknots sea level pressurealtimeterstation pressurevisibilityair tempwater tempwave heightnotes
2014-Dec-19 21:50 260 17 gusting 27 5.4 5.0 Showers in the vicinity. Thunderstorm.
2014-Dec-19 21:20 260 18 5.4 5.0 Rain showers. Thunderstorm.
2014-Dec-19 20:50 250 16 5.4 4.0 Rain showers. Thunderstorm.
2014-Dec-19 20:20 260 11 5.4 5.0 Showers in the vicinity. Thunderstorm.
2014-Dec-19 19:20 260 20 gusting 30 5.4 5.0 Rain showers. Thunderstorm.
2014-Dec-19 18:20 250 15 5.4 5.0 Showers in the vicinity. Thunderstorm.
2014-Dec-19 17:20 260 11 5.4 5.0 Showers in the vicinity.
2014-Dec-19 16:20 270 13 gusting 24 5.4 5.0 Showers in the vicinity.
2014-Dec-19 15:50 270 15 gusting 26 5.4 4.0 Showers in the vicinity.
2014-Dec-19 15:20 270 14 gusting 32 5.4 4.0 Showers in the vicinity.
2014-Dec-19 14:50 260 17 5.4 3.0 Thunderstorm. Rain showers.
2014-Dec-19 14:20 250 18 5.4 5.0 Showers in the vicinity.
2014-Dec-19 13:20 260 17 gusting 27 5.4 4.0 Showers in the vicinity.
2014-Dec-19 12:50 250 13 5.4 4.0 Showers in the vicinity.
2014-Dec-19 11:50 250 12 gusting 22 4.9 4.0 Small hail/snow pellets rain.
2014-Dec-19 11:20 270 18 gusting 31 5.4 4.0 Light rain.
2014-Dec-19 10:50 220 5 5.4 3.0 Showers in the vicinity.
2014-Dec-19 10:20 220 13 gusting 27 5.4 4.0 Rain showers.
2014-Dec-19 09:50 240 12 gusting 22 5.4 4.0
2014-Dec-19 08:50 260 13 5.4 3.0 Light rain.
2014-Dec-19 08:20 260 9 5.4 2.0 Light rain.
2014-Dec-19 07:50 200 7 5.4 4.0 Rain showers.
2014-Dec-19 07:20 230 11 5.4
2014-Dec-18 18:20 210 7 5.4 6.0
2014-Dec-18 17:50 210 7 5.4 6.0
2014-Dec-18 17:20 180 6 5.4 6.0 Light rain.
2014-Dec-18 16:50 170 6 5.4 6.0 Light rain.
2014-Dec-18 16:20 210 4 5.4 6.0 Light rain.
2014-Dec-18 15:50 210 7 5.4 6.0
2014-Dec-18 15:20 230 5 5.4 6.0
2014-Dec-18 14:50 230 5 5.4 6.0
2014-Dec-18 14:20 210 3 5.4 6.0
2014-Dec-18 13:50 220 4 Rain showers.
2014-Dec-18 13:20 240 3 Light rain.
2014-Dec-18 12:50 270 9 Light rain showers.
2014-Dec-18 12:20 230 11 Light rain showers.
2014-Dec-18 11:50 230 11 5.4 8.0
2014-Dec-18 11:20 230 13 gusting 23 5.4 8.0 Showers in the vicinity.
2014-Dec-18 10:50 220 12 5.4 8.0 Showers in the vicinity.
2014-Dec-18 10:20 220 11 5.4 8.0 Showers in the vicinity.
2014-Dec-18 09:50 230 11 5.4 8.0 Showers in the vicinity.
2014-Dec-18 09:20 220 13 5.4 8.0 Showers in the vicinity.
2014-Dec-18 08:50 220 10 gusting 20 5.4 8.0 Showers in the vicinity.
2014-Dec-18 08:20 220 12 gusting 22 5.4 8.0 Showers in the vicinity.
2014-Dec-18 07:20 210 8 5.4 6.0 Light rain.
2014-Dec-18 06:50 220 11 gusting 20 5.4 7.0 Rain.
2014-Dec-18 06:20 220 8 5.4 6.0 Light rain.
2014-Dec-18 05:50 240 10 5.4 6.0 Light rain.
2014-Dec-18 05:20 220 13 5.4 6.0 Light rain.
2014-Dec-18 04:50 210 6 5.4 6.0 Light rain showers.